Location: ?????
(37.7324°N, 23.9257°E)
Time: 08:26:33
(UTC+00:00)

PSLV R/B - Pass Details

Date: 29 November 2020
Orbit: 568 x 598 km, 98.2° (Epoch: 17 January)

Event Time Altitude Azimuth Distance (km) Brightness Sun altitude
Rises 04:08:43 0° 176° (S) 2,809 7.7 -13.7°
Reaches altitude 10° 04:10:54 10° 180° (S) 1,908 6.8 -13.3°
Maximum altitude 04:14:58 56° 259° (W) 701 4.0 -12.6°
Drops below altitude 10° 04:19:02 10° 338° (NNW) 1,905 6.2 -11.8°
Enters shadow 04:20:35 - 342° (NNW) 2,540 6.9 -11.5°
